Orange, VA

2:39 AM EST on December 18, 2017 (GMT -0500)
Orange County

Weather History for KOMH - January, 2014

Change the Weather History Date:

Friday, January 24, 2014

  Actual Average Record
Temperature  
Mean Temperature 18 °F -  
Max Temperature 28 °F 46 °F 73 °F (1950)
Min Temperature 8 °F 23 °F 5 °F (1963)
Degree Days  
Heating Degree Days 47    
Moisture  
Dew Point 1 °F    
Average Humidity 46    
Maximum Humidity 79    
Minimum Humidity 31    
Precipitation  
Precipitation 0.00 in - - ()
Sea Level Pressure  
Sea Level Pressure 30.39 in    
Wind  
Wind Speed 5 mph (SSW)    
Max Wind Speed 14 mph    
Max Gust Speed 21 mph    
Visibility 10 miles    
Events      
Averages and records for this station are not official NWS values.
T = Trace of Precipitation, MM = Missing Value Source: NWS Daily Summary

Daily Weather History Graph

Daily Weather History Graph

Search for Another Location

Airport or City:

Trip Planner

Search our weather history database for the weather conditions in past years. The results will help you decide how hot, cold, wet, or windy it might be!

Date:

Astronomy

Jan. 24, 2014 Rise Set
Actual Time 7:23 AM EST 5:25 PM EST
Civil Twilight 6:54 AM EST 5:54 PM EST
Nautical Twilight 6:22 AM EST 6:26 PM EST
Astronomical Twilight 5:51 AM EST 6:57 PM EST
Moon 12:49 AM EST (1/24) 11:42 AM EST (1/24)
Length of Visible Light 10h 59m
Length of Day
10h 02m
Last Quarter, 45% of the Moon is Illuminated
Jan 24
Last Quarter
Jan 30
New
Feb 6
First Quarter
Feb 14
Full
Feb 22
Last Quarter

Hourly Weather History & Observations

Time (EST) Temp. Windchill Dew Point Humidity Pressure Visibility Wind Dir Wind Speed Gust Speed Precip Events Conditions
12:15 AM 17.6 °F - 1.4 °F 49% 30.46 in 10.0 mi Calm Calm - N/A   Clear
12:35 AM 12.2 °F - 3.2 °F 67% 30.46 in 10.0 mi Calm Calm - N/A   Clear
12:55 AM 12.2 °F - 1.4 °F 62% 30.46 in 10.0 mi Calm Calm - N/A   Clear
1:15 AM 12.2 °F - 3.2 °F 67% 30.45 in 10.0 mi Calm Calm - N/A   Clear
1:35 AM 10.4 °F - 3.2 °F 73% 30.45 in 10.0 mi Calm Calm - N/A   Clear
1:55 AM 10.4 °F - 3.2 °F 73% 30.46 in 10.0 mi Calm Calm - N/A   Clear
2:15 AM 8.6 °F - 3.2 °F 79% 30.46 in 10.0 mi Calm Calm - N/A   Clear
2:35 AM 8.6 °F 2.0 °F 3.2 °F 79% 30.47 in 10.0 mi West 3.5 mph - N/A   Clear
2:55 AM 12.2 °F 2.9 °F 1.4 °F 62% 30.48 in 10.0 mi West 5.8 mph - N/A   Clear
3:15 AM 14.0 °F 6.5 °F -0.4 °F 53% 30.48 in 10.0 mi West 4.6 mph - N/A   Clear
3:35 AM 12.2 °F 6.1 °F 1.4 °F 62% 30.49 in 10.0 mi West 3.5 mph - N/A   Clear
3:55 AM 10.4 °F -0.4 °F 1.4 °F 67% 30.49 in 10.0 mi West 6.9 mph - N/A   Clear
4:15 AM 14.0 °F 2.9 °F -0.4 °F 53% 30.49 in 10.0 mi West 8.1 mph - N/A   Clear
4:35 AM 14.0 °F 5.1 °F -0.4 °F 53% 30.49 in 10.0 mi West 5.8 mph - N/A   Clear
4:55 AM 14.0 °F 2.0 °F -0.4 °F 53% 30.49 in 10.0 mi West 9.2 mph - N/A   Clear
5:15 AM 14.0 °F 3.9 °F -0.4 °F 53% 30.49 in 10.0 mi WSW 6.9 mph - N/A   Clear
5:35 AM 14.0 °F 2.9 °F -0.4 °F 53% 30.50 in 10.0 mi SW 8.1 mph - N/A   Clear
5:55 AM 14.0 °F - -0.4 °F 53% 30.52 in 10.0 mi Calm Calm - N/A   Clear
6:15 AM 12.2 °F 0.7 °F -0.4 °F 57% 30.51 in 10.0 mi SW 8.1 mph - N/A   Clear
6:35 AM 14.0 °F -0.2 °F -0.4 °F 53% 30.52 in 10.0 mi WSW 12.7 mph 17.3 mph N/A   Clear
6:55 AM 14.0 °F 2.9 °F -0.4 °F 53% 30.53 in 10.0 mi SW 8.1 mph - N/A   Clear
7:15 AM 14.0 °F 2.9 °F -0.4 °F 53% 30.53 in 10.0 mi SW 8.1 mph - N/A   Clear
7:35 AM 12.2 °F 6.1 °F -0.4 °F 57% 30.53 in 10.0 mi SSW 3.5 mph - N/A   Clear
7:55 AM 12.2 °F 4.3 °F -0.4 °F 57% 30.53 in 10.0 mi SSW 4.6 mph - N/A   Clear
8:15 AM 14.0 °F 3.9 °F -0.4 °F 53% 30.54 in 10.0 mi SW 6.9 mph - N/A   Clear
8:35 AM 17.6 °F 6.4 °F -0.4 °F 45% 30.54 in 10.0 mi South 9.2 mph - N/A   Clear
8:55 AM 17.6 °F 7.3 °F -0.4 °F 45% 30.54 in 10.0 mi South 8.1 mph - N/A   Clear
9:15 AM 17.6 °F 6.4 °F -0.4 °F 45% 30.54 in 10.0 mi SSW 9.2 mph - N/A   Clear
9:35 AM 19.4 °F 7.9 °F 1.4 °F 46% 30.55 in 10.0 mi SW 10.4 mph - N/A   Clear
9:55 AM 19.4 °F 8.6 °F 1.4 °F 46% 30.54 in 10.0 mi SW 9.2 mph - N/A   Clear
10:15 AM 19.4 °F 7.2 °F 1.4 °F 46% 30.54 in 10.0 mi SSW 11.5 mph - N/A   Clear
10:35 AM 21.2 °F 10.9 °F 1.4 °F 42% 30.54 in 10.0 mi SW 9.2 mph - N/A   Clear
10:55 AM 23.0 °F 18.4 °F 1.4 °F 39% 30.53 in 10.0 mi SSW 3.5 mph - N/A   Clear
11:15 AM 23.0 °F 13.9 °F 1.4 °F 39% 30.51 in 10.0 mi SSW 8.1 mph - N/A   Clear
11:35 AM 24.8 °F 16.9 °F 3.2 °F 40% 30.50 in 10.0 mi SSW 6.9 mph - N/A   Clear
11:55 AM 23.0 °F 13.9 °F 1.4 °F 39% 30.48 in 10.0 mi SW 8.1 mph - N/A   Clear
12:15 PM 24.8 °F 16.9 °F 1.4 °F 36% 30.47 in 10.0 mi South 6.9 mph - N/A   Clear
12:35 PM 26.6 °F 19.1 °F 3.2 °F 37% 30.46 in 10.0 mi SSW 6.9 mph - N/A   Clear
12:55 PM 26.6 °F 19.1 °F 1.4 °F 34% 30.44 in 10.0 mi SSW 6.9 mph - N/A   Clear
1:15 PM 26.6 °F 17.5 °F 1.4 °F 34% 30.42 in 10.0 mi South 9.2 mph - N/A   Clear
1:35 PM 28.4 °F 23.3 °F 1.4 °F 31% 30.41 in 10.0 mi SW 4.6 mph - N/A   Clear
1:55 PM 28.4 °F 24.6 °F 1.4 °F 31% 30.41 in 10.0 mi SSW 3.5 mph - N/A   Clear
2:15 PM 28.4 °F 17.5 °F 3.2 °F 34% 30.40 in 10.0 mi SW 13.8 mph 17.3 mph N/A   Clear
2:35 PM 28.4 °F 21.2 °F 1.4 °F 31% 30.38 in 10.0 mi SSW 6.9 mph - N/A   Clear
2:55 PM 28.4 °F 19.7 °F 1.4 °F 31% 30.37 in 10.0 mi SSW 9.2 mph - N/A   Clear
3:15 PM 28.4 °F 19.1 °F 1.4 °F 31% 30.36 in 10.0 mi SSW 10.4 mph - N/A   Clear
3:35 PM 28.4 °F 20.4 °F 1.4 °F 31% 30.35 in 10.0 mi South 8.1 mph - N/A   Clear
3:55 PM 28.4 °F 17.5 °F 3.2 °F 34% 30.35 in 10.0 mi SSW 13.8 mph 17.3 mph N/A   Clear
4:15 PM 28.4 °F 18.5 °F 3.2 °F 34% 30.34 in 10.0 mi South 11.5 mph 18.4 mph N/A   Clear
4:35 PM 28.4 °F 19.1 °F 1.4 °F 31% 30.32 in 10.0 mi SSE 10.4 mph 18.4 mph N/A   Clear
4:55 PM 28.4 °F 19.7 °F 1.4 °F 31% 30.31 in 10.0 mi South 9.2 mph - N/A   Clear
5:15 PM 28.4 °F 21.2 °F 1.4 °F 31% 30.30 in 10.0 mi South 6.9 mph - N/A   Clear
5:35 PM 26.6 °F 20.0 °F -0.4 °F 31% 30.29 in 10.0 mi South 5.8 mph - N/A   Clear
5:55 PM 26.6 °F 21.2 °F -0.4 °F 31% 30.29 in 10.0 mi SSE 4.6 mph - N/A   Clear
6:15 PM 24.8 °F 16.9 °F 1.4 °F 36% 30.29 in 10.0 mi SSE 6.9 mph - N/A   Clear
6:35 PM 24.8 °F 16.9 °F 1.4 °F 36% 30.28 in 10.0 mi SSE 6.9 mph - N/A   Clear
6:55 PM 24.8 °F 16.1 °F 1.4 °F 36% 30.28 in 10.0 mi SSE 8.1 mph - N/A   Clear
7:15 PM 24.8 °F 16.9 °F 1.4 °F 36% 30.27 in 10.0 mi SSE 6.9 mph - N/A   Clear
7:35 PM 23.0 °F 14.7 °F 1.4 °F 39% 30.26 in 10.0 mi SSE 6.9 mph - N/A   Clear
7:55 PM 23.0 °F 13.1 °F 3.2 °F 43% 30.25 in 10.0 mi SSE 9.2 mph - N/A   Clear
8:15 PM 23.0 °F 15.8 °F 1.4 °F 39% 30.23 in 10.0 mi South 5.8 mph - N/A   Clear
8:35 PM 23.0 °F 14.7 °F 3.2 °F 43% 30.22 in 10.0 mi SSE 6.9 mph - N/A   Clear
8:55 PM 23.0 °F 12.4 °F 3.2 °F 43% 30.21 in 10.0 mi SSE 10.4 mph 16.1 mph N/A   Clear
9:15 PM 23.0 °F 13.1 °F 3.2 °F 43% 30.19 in 10.0 mi SSE 9.2 mph 16.1 mph N/A   Clear
9:35 PM 23.0 °F 13.9 °F 1.4 °F 39% 30.17 in 10.0 mi SSE 8.1 mph - N/A   Clear
9:55 PM 23.0 °F 13.1 °F 3.2 °F 43% 30.16 in 10.0 mi SSE 9.2 mph - N/A   Clear
10:15 PM 23.0 °F 12.4 °F 3.2 °F 43% 30.15 in 10.0 mi South 10.4 mph 16.1 mph N/A   Clear
10:35 PM 23.0 °F 13.1 °F 3.2 °F 43% 30.14 in 10.0 mi South 9.2 mph - N/A   Clear
10:55 PM 23.0 °F 11.7 °F 3.2 °F 43% 30.13 in 10.0 mi SSE 11.5 mph 16.1 mph N/A   Clear
11:15 PM 23.0 °F 11.7 °F 3.2 °F 43% 30.13 in 10.0 mi South 11.5 mph 17.3 mph N/A   Clear
11:35 PM 23.0 °F 11.1 °F 3.2 °F 43% 30.12 in 10.0 mi South 12.7 mph 17.3 mph N/A   Clear
11:55 PM 23.0 °F 11.7 °F 3.2 °F 43% 30.10 in 10.0 mi South 11.5 mph 20.7 mph N/A   Clear